TimePDT,TemperatureF,Dew PointF,Humidity,Sea Level PressureIn,VisibilityMPH,Wind Direction,Wind SpeedMPH,Gust SpeedMPH,PrecipitationIn,Events,Conditions,WindDirDegrees,DateUTC
12:53 AM,37.0,25.0,62,30.03,10.0,South,4.6,-,N/A,,Clear,180,2013-09-19 07:53:00
1:53 AM,36.0,26.1,67,30.03,10.0,Calm,Calm,-,N/A,,Clear,0,2013-09-19 08:53:00
2:53 AM,34.0,25.0,70,30.03,10.0,Calm,Calm,-,N/A,,Clear,0,2013-09-19 09:53:00
3:53 AM,32.0,24.1,73,30.01,10.0,Calm,Calm,-,N/A,,Clear,0,2013-09-19 10:53:00
4:53 AM,30.9,23.0,72,30.01,10.0,Calm,Calm,-,N/A,,Clear,0,2013-09-19 11:53:00
5:53 AM,30.0,23.0,75,30.03,10.0,Calm,Calm,-,N/A,,Clear,0,2013-09-19 12:53:00
6:53 AM,30.0,24.1,79,30.06,10.0,South,4.6,-,N/A,,Clear,180,2013-09-19 13:53:00
7:53 AM,35.1,26.1,70,30.07,10.0,South,4.6,-,N/A,,Clear,180,2013-09-19 14:53:00
8:53 AM,46.9,28.9,50,30.04,10.0,Calm,Calm,-,N/A,,Clear,0,2013-09-19 15:53:00
9:53 AM,59.0,24.1,26,30.02,10.0,Calm,Calm,-,N/A,,Clear,0,2013-09-19 16:53:00
10:53 AM,64.9,25.0,22,30.00,10.0,Calm,Calm,-,N/A,,Clear,0,2013-09-19 17:53:00
11:53 AM,69.1,27.0,21,29.99,10.0,Variable,3.5,-,N/A,,Clear,0,2013-09-19 18:53:00
12:53 PM,69.1,30.0,23,29.99,10.0,NE,9.2,-,N/A,,Clear,40,2013-09-19 19:53:00
1:53 PM,72.0,28.0,20,29.96,10.0,NE,6.9,-,N/A,,Clear,50,2013-09-19 20:53:00
2:53 PM,73.9,28.0,18,29.94,10.0,NNE,11.5,-,N/A,,Clear,30,2013-09-19 21:53:00
3:53 PM,75.9,25.0,15,29.93,10.0,Variable,4.6,-,N/A,,Clear,0,2013-09-19 22:53:00
4:53 PM,75.0,27.0,17,29.93,10.0,Calm,Calm,-,N/A,,Clear,0,2013-09-19 23:53:00
5:53 PM,73.0,19.0,13,29.94,10.0,SSW,5.8,-,N/A,,Clear,210,2013-09-20 00:53:00
6:53 PM,64.0,25.0,23,29.97,10.0,Calm,Calm,-,N/A,,Clear,0,2013-09-20 01:53:00
7:53 PM,59.0,27.0,29,29.98,10.0,Calm,Calm,-,N/A,,Clear,0,2013-09-20 02:53:00
8:53 PM,53.1,30.0,41,29.98,10.0,Calm,Calm,-,N/A,,Clear,0,2013-09-20 03:53:00
9:53 PM,50.0,30.0,46,29.95,10.0,Calm,Calm,-,N/A,,Clear,0,2013-09-20 04:53:00
10:53 PM,48.0,27.0,44,29.94,10.0,Calm,Calm,-,N/A,,Clear,0,2013-09-20 05:53:00
11:53 PM,45.0,27.0,49,29.93,10.0,Calm,Calm,-,N/A,,Clear,0,2013-09-20 06:53:00